Temp_Advection
nan nan nan nan nan nan nan nan nan nan nan nan nan nan nan nan nan nan nan nan nan nan
nan -0 -0 0 0 0 -0 0 0 0 1 0 1 0 0 0 0 0 0 -0 0 nan
nan 0 -0 0 1 -0 0 1 0 1 1 0 0 0 0 0 0 0 0 0 1 nan
nan 0 0 0 -0 0 0 0 0 0 0 0 0 0 0 0 0 0 0 0 0 nan
nan 0 0 0 0 -0 -0 0 0 1 1 0 0 0 1 1 0 0 0 0 0 nan
nan 0 0 0 -0 -0 -0 1 1 0 0 0 1 1 0 0 0 0 0 0 0 nan
nan 0 0 0 0 0 0 0 0 -0 0 0 0 0 0 0 0 0 0 0 0 nan
nan -0 0 0 0 0 0 0 0 0 0 0 0 0 -0 -0 0 0 0 0 0 nan
nan 0 0 0 0 -0 0 0 0 0 0 0 0 0 0 0 0 0 0 0 0 nan
nan 0 0 0 0 0 0 0 0 0 0 0 -0 0 0 0 0 0 0 0 0 nan
nan -0 0 0 0 0 0 0 0 0 0 0 0 0 0 0 1 1 0 0 0 nan
nan 0 0 0 0 0 0 0 0 0 0 0 0 0 0 1 1 0 0 0 0 nan
nan 0 0 0 0 0 0 0 0 0 0 0 0 0 0 0 0 0 0 0 0 nan
nan nan nan nan nan nan nan nan nan nan nan nan nan nan nan nan nan nan nan nan nan nan
Wind_Speed
33 21 17 29 30 26 22 24 26 25 25 27 26 25 24 23 22 23 22 21 19 16
28 20 17 28 24 26 28 27 26 25 26 25 24 23 23 23 22 22 20 19 18 19
28 20 20 23 25 26 26 26 25 25 21 20 21 21 22 22 23 23 22 22 19 19
11 17 20 24 25 21 22 22 24 22 23 23 22 21 22 22 22 20 19 18 18 17
6 9 12 20 26 25 23 19 21 23 23 20 21 21 22 21 19 20 18 16 16 16
9 12 12 11 15 25 28 26 31 33 30 28 26 27 26 25 27 23 20 19 21 23
7 9 10 10 11 16 17 18 22 24 24 24 25 23 24 23 21 20 22 23 23 24
6 6 6 8 10 12 13 15 15 18 20 21 21 22 20 19 20 21 20 21 20 18
4 5 7 8 9 12 13 15 15 18 19 18 19 19 19 20 18 17 17 18 16 15
4 3 3 5 6 7 10 11 14 15 16 17 15 16 18 17 17 16 16 15 15 15
3 2 3 3 4 6 7 9 13 14 14 14 14 18 17 18 17 15 14 14 15 15
2 4 5 6 6 6 6 7 6 7 8 9 10 10 11 12 12 12 12 13 14 15
4 4 5 6 6 6 6 6 6 6 6 6 7 7 8 8 9 10 12 13 13 13
4 5 5 6 6 6 7 8 8 7 6 6 7 8 8 9 10 11 12 14 15 16
Wind_Direction
204 212 201 200 194 194 203 218 212 207 208 209 209 210 212 214 217 221 223 224 226 226
214 220 205 194 205 202 202 218 215 212 213 212 210 209 210 210 213 219 224 225 225 226
229 228 209 203 207 208 214 225 222 218 219 214 213 210 210 211 213 214 217 219 220 227
224 234 233 214 219 213 213 212 215 214 215 214 216 214 214 217 218 216 223 229 230 230
163 204 206 221 227 224 222 218 220 218 214 212 213 214 219 219 224 222 220 222 235 241
194 194 206 207 209 218 223 237 231 227 229 224 230 230 229 230 236 230 231 238 245 250
196 193 198 193 198 202 211 223 216 223 230 231 235 235 226 220 223 231 238 241 239 245
185 189 194 208 210 213 216 218 213 218 221 218 222 226 224 235 230 236 233 235 235 234
168 185 195 207 215 220 233 231 223 221 220 230 232 230 229 227 237 226 221 230 239 234
123 140 172 184 193 186 212 216 219 218 218 218 217 228 231 237 225 225 229 235 233 231
102 142 184 182 207 191 202 209 206 218 224 223 226 241 233 222 222 221 221 226 230 231
153 189 181 177 187 176 192 212 201 206 216 221 225 225 226 222 219 217 216 221 227 231
182 180 180 174 173 163 174 193 189 192 195 199 197 207 206 205 208 214 220 223 229 236
178 180 173 168 160 167 177 179 177 183 190 203 199 191 188 201 210 223 231 239 242 250
Height
1454 1457 1455 1459 1462 1468 1472 1477 1479 1481 1484 1489 1490 1496 1500 1504 1508 1514 1516 1518 1520 1522
1451 1452 1453 1457 1463 1465 1470 1473 1475 1478 1483 1487 1490 1493 1497 1501 1505 1510 1514 1516 1519 1520
1444 1446 1453 1455 1458 1463 1465 1473 1476 1479 1482 1486 1488 1492 1494 1498 1502 1506 1510 1512 1513 1516
1441 1444 1448 1453 1459 1463 1467 1470 1475 1477 1481 1484 1487 1490 1493 1496 1500 1503 1507 1509 1510 1512
1438 1443 1446 1451 1455 1459 1464 1468 1471 1476 1479 1482 1484 1488 1491 1494 1497 1500 1502 1504 1507 1508
1441 1443 1446 1447 1451 1455 1460 1464 1466 1471 1475 1479 1482 1485 1487 1489 1494 1495 1497 1498 1502 1504
1441 1443 1445 1446 1448 1452 1457 1460 1462 1464 1469 1473 1477 1480 1482 1484 1487 1488 1490 1494 1496 1499
1439 1441 1442 1444 1447 1452 1454 1457 1459 1462 1467 1470 1474 1477 1479 1481 1484 1486 1486 1490 1492 1493
1438 1440 1442 1445 1447 1449 1451 1455 1458 1461 1465 1468 1471 1473 1476 1478 1480 1482 1484 1486 1489 1491
1438 1441 1444 1446 1447 1447 1452 1454 1457 1461 1464 1467 1468 1470 1473 1475 1476 1479 1480 1484 1487 1489
1439 1442 1445 1445 1449 1450 1453 1455 1456 1460 1461 1463 1465 1469 1470 1471 1473 1475 1478 1481 1485 1486
1444 1447 1446 1446 1451 1451 1451 1455 1454 1456 1459 1461 1463 1466 1468 1470 1471 1474 1475 1478 1480 1485
1445 1445 1446 1448 1450 1448 1452 1457 1454 1456 1459 1461 1462 1465 1467 1469 1472 1473 1475 1475 1478 1481
1443 1444 1445 1447 1448 1450 1453 1454 1454 1457 1459 1460 1462 1464 1468 1470 1470 1472 1475 1475 1477 1478